Weather History for Shelbyville, IN

Change the Weather History Date:

Monday, June 23, 2014

  Actual Average Record
Temperature  
Mean Temperature 80 °F 73 °F  
Max Temperature 91 °F 84 °F 91 °F (2002)
Min Temperature 69 °F 63 °F 52 °F (2004)
Degree Days  
Heating Degree Days 0 0  
Month to date heating degree days 1 11  
Since 1 June heating degree days 1 11  
Since 1 July heating degree days 5703 5406  
Cooling Degree Days 15 8  
Month to date cooling degree days 220 148  
Year to date cooling degree days 383 229  
Since 1 June cooling degree days 220 148  
Growing Degree Days 30 (Base 50)    
Moisture  
Dew Point 67 °F    
Average Humidity 67    
Maximum Humidity 90    
Minimum Humidity 44    
Precipitation  
Precipitation T in 0.14 in 0.36 in (2007)
Month to date precipitation 4.41 3.45  
Year to date precipitation 19.90 21.23  
Sea Level Pressure  
Sea Level Pressure 29.89 in    
Wind  
Wind Speed 9 mph (SSW)    
Max Wind Speed 28 mph    
Max Gust Speed 36 mph    
Visibility 9 miles    
Events Rain , Thunderstorm    
T = Trace of Precipitation, MM = Missing Value Source: NWS Daily Summary

Daily Weather History Graph

Daily Weather History Graph

Search for Another Location

Airport:

Trip Planner

Search our weather history database for the weather conditions in past years. The results will help you decide how hot, cold, wet, or windy it might be!

Date:

Astronomy

Jun. 23, 2014 Rise Set
Actual Time 6:16 AM EDT 9:14 PM EDT
Civil Twilight 5:43 AM EDT 9:47 PM EDT
Nautical Twilight 5:02 AM EDT 10:28 PM EDT
Astronomical Twilight 4:14 AM EDT 11:16 PM EDT
Moon 3:41 AM EDT (6/23) 5:55 PM EDT (6/23)
Length of Visible Light 16h 03m
Length of Day
14h 58m
Waning Crescent, 13% of the Moon is Illuminated
Jun 23
Waning Crescent
Jun 27
New
Jul 5
First Quarter
Jul 12
Full
Jul 18
Last Quarter

Hourly Weather History & Observations

Time (EDT) Temp. Heat Index Dew Point Humidity Pressure Visibility Wind Dir Wind Speed Gust Speed Precip Events Conditions
12:53 AM 72.0 °F - 66.9 °F 84% 29.87 in 10.0 mi South 4.6 mph - N/A   Clear
2:53 AM 71.1 °F - 66.0 °F 84% 29.85 in 10.0 mi South 4.6 mph - N/A   Clear
3:53 AM 70.0 °F - 64.9 °F 84% 29.87 in 7.0 mi Calm Calm - N/A   Clear
4:53 AM 69.1 °F - 64.9 °F 87% 29.87 in 6.0 mi SE 4.6 mph - N/A   Clear
5:53 AM 69.1 °F - 64.9 °F 87% 29.88 in 5.0 mi SE 4.6 mph - N/A   Clear
6:53 AM 70.0 °F - 66.0 °F 87% 29.90 in 5.0 mi SSE 5.8 mph - N/A   Clear
7:53 AM 73.9 °F - 66.9 °F 79% 29.91 in 8.0 mi South 8.1 mph - N/A   Clear
8:53 AM 77.0 °F - 68.0 °F 74% 29.91 in 10.0 mi South 6.9 mph - N/A   Clear
9:53 AM 81.0 °F 84.1 °F 69.1 °F 67% 29.91 in 10.0 mi South 10.4 mph - N/A   Clear
10:53 AM 84.0 °F 88.4 °F 70.0 °F 63% 29.90 in 10.0 mi South 12.7 mph - N/A   Clear
11:53 AM 86.0 °F 90.7 °F 70.0 °F 59% 29.91 in 10.0 mi SSW 9.2 mph - N/A   Clear
12:53 PM 87.1 °F 91.3 °F 69.1 °F 55% 29.91 in 10.0 mi SW 12.7 mph - N/A   Scattered Clouds
1:53 PM 89.1 °F 94.1 °F 70.0 °F 53% 29.91 in 10.0 mi SSW 13.8 mph - N/A   Clear
2:53 PM 90.0 °F 93.6 °F 68.0 °F 48% 29.88 in 10.0 mi SSW 10.4 mph - N/A   Clear
3:53 PM 91.0 °F 94.3 °F 66.9 °F 45% 29.86 in 10.0 mi SSW 11.5 mph - N/A   Clear
5:35 PM 80.1 °F 82.1 °F 66.0 °F 62% 29.90 in 10.0 mi West 25.3 mph 35.7 mph N/A   Mostly Cloudy
5:42 PM 78.1 °F - 66.0 °F 66% 29.90 in 10.0 mi WNW 21.9 mph 31.1 mph N/A Thunderstorm Thunderstorm
5:53 PM 75.9 °F - 66.9 °F 74% 29.91 in 10.0 mi West 16.1 mph - 0.00 in Rain , Thunderstorm Light Thunderstorms and Rain
6:04 PM 75.0 °F - 68.0 °F 79% 29.92 in 10.0 mi West 8.1 mph - 0.00 in Rain , Thunderstorm Light Rain
6:38 PM 77.0 °F - 68.0 °F 74% 29.91 in 10.0 mi Calm Calm - 0.00 in   Clear
6:53 PM 77.0 °F - 68.0 °F 74% 29.87 in 10.0 mi Calm Calm - 0.00 in   Partly Cloudy
7:53 PM 78.1 °F - 68.0 °F 71% 29.88 in 10.0 mi SSE 17.3 mph 20.7 mph N/A   Clear
8:53 PM 78.1 °F - 68.0 °F 71% 29.89 in 10.0 mi South 10.4 mph - N/A   Clear
9:53 PM 75.9 °F - 68.0 °F 76% 29.90 in 10.0 mi SSE 6.9 mph - N/A   Clear
10:53 PM 75.0 °F - 68.0 °F 79% 29.91 in 10.0 mi South 6.9 mph - N/A   Clear
11:53 PM 73.9 °F - 68.0 °F 82% 29.91 in 10.0 mi SSW 6.9 mph - N/A   Clear